Weather History for KADM - April, 2013

Change the Weather History Date:

Tuesday, April 2, 2013

  Actual Average Record
Temperature  
Mean Temperature 50 °F -  
Max Temperature 58 °F 67 °F 87 °F (2006)
Min Temperature 42 °F 48 °F 35 °F (2005)
Degree Days  
Heating Degree Days 16    
Moisture  
Dew Point 43 °F    
Average Humidity 79    
Maximum Humidity 88    
Minimum Humidity 56    
Precipitation  
Precipitation 0.64 in - - ()
Sea Level Pressure  
Sea Level Pressure 30.05 in    
Wind  
Wind Speed 12 mph (NE)    
Max Wind Speed 18 mph    
Max Gust Speed 23 mph    
Visibility 9 miles    
Events Rain , Thunderstorm    
Averages and records for this station are not official NWS values.
T = Trace of Precipitation, MM = Missing Value Source: NWS Daily Summary

Daily Weather History Graph

Daily Weather History Graph

Search for Another Location

Airport or City:

Trip Planner

Search our weather history database for the weather conditions in past years. The results will help you decide how hot, cold, wet, or windy it might be!

Date:

Astronomy

Apr. 02, 2013 Rise Set
Actual Time 7:13 AM CDT 7:49 PM CDT
Civil Twilight 6:48 AM CDT 8:15 PM CDT
Nautical Twilight 6:18 AM CDT 8:45 PM CDT
Astronomical Twilight 5:48 AM CDT 9:15 PM CDT
Moon 1:45 AM CDT (4/2) 12:16 PM CDT (4/2)
Length of Visible Light 13h 27m
Length of Day
12h 36m
Waning Gibbous, 55% of the Moon is Illuminated
Apr 2
Waning Gibbous
Apr 2
Last Quarter
Apr 10
New
Apr 18
First Quarter
Apr 25
Full

Hourly Weather History & Observations

Time (CDT) Temp. Windchill Dew Point Humidity Pressure Visibility Wind Dir Wind Speed Gust Speed Precip Events Conditions
12:15 AM 55.8 °F - 40.5 °F 56% 30.02 in 10.0 mi ENE 15.0 mph 21.9 mph N/A   Clear
12:35 AM 56.3 °F - 40.6 °F 56% 30.02 in 10.0 mi East 11.5 mph 16.1 mph N/A   Scattered Clouds
12:55 AM 56.3 °F - 42.4 °F 60% 30.04 in 10.0 mi ENE 9.2 mph - N/A   Light Drizzle
1:15 AM 57.7 °F - 42.3 °F 56% 30.04 in 10.0 mi NNE 5.8 mph - N/A   Scattered Clouds
1:35 AM 57.2 °F - 43.0 °F 59% 30.02 in 10.0 mi East 11.5 mph 16.1 mph N/A   Scattered Clouds
1:55 AM 57.2 °F - 43.5 °F 60% 30.04 in 10.0 mi NNW 13.8 mph 18.4 mph N/A Rain Light Rain
2:15 AM 53.8 °F - 45.3 °F 73% 30.02 in 10.0 mi East 10.4 mph 16.1 mph N/A Rain Light Rain
2:35 AM 51.1 °F - 45.3 °F 81% 30.01 in 10.0 mi ENE 8.1 mph 11.5 mph 0.01 in Rain Rain
2:55 AM 50.5 °F - 45.5 °F 83% 30.04 in 10.0 mi NE 12.7 mph 17.3 mph 0.01 in   Light Drizzle
3:15 AM 49.5 °F - 44.6 °F 83% 30.04 in 10.0 mi North 10.4 mph - N/A Rain Rain
3:35 AM 49.3 °F - 44.2 °F 83% 30.03 in 7.0 mi NNE 11.5 mph 21.9 mph 0.01 in Rain , Thunderstorm Thunderstorms and Rain
3:55 AM 48.0 °F - 43.7 °F 85% 30.04 in 10.0 mi NNE 13.8 mph 18.4 mph 0.03 in Rain Light Rain
4:15 AM 47.3 °F - 43.2 °F 86% 30.04 in 10.0 mi North 17.3 mph 20.7 mph N/A Rain , Thunderstorm Light Thunderstorms and Rain
4:35 AM 46.6 °F - 42.3 °F 85% 30.03 in 10.0 mi NNE 15.0 mph 20.7 mph N/A Thunderstorm Thunderstorm
4:55 AM 45.9 °F 39.4 °F 41.4 °F 84% 30.01 in 10.0 mi NNE 15.0 mph - N/A   Scattered Clouds
5:15 AM 45.5 °F 38.9 °F 41.0 °F 84% 30.00 in 10.0 mi NNE 15.0 mph 21.9 mph N/A Thunderstorm Mostly Cloudy
5:35 AM 45.1 °F 39.5 °F 41.0 °F 85% 30.07 in 2.5 mi North 11.5 mph 19.6 mph 0.12 in Rain , Thunderstorm Light Thunderstorms and Rain
5:55 AM 44.6 °F 37.4 °F 40.8 °F 87% 30.06 in 7.0 mi NNE 16.1 mph 23.0 mph 0.17 in Rain , Thunderstorm Rain
6:15 AM 44.2 °F 36.4 °F 41.0 °F 88% 30.07 in 0.8 mi NE 18.4 mph - 0.32 in Thunderstorm Unknown
6:35 AM 44.6 °F 39.7 °F 41.4 °F 88% 30.06 in 7.0 mi NNE 9.2 mph 17.3 mph 0.37 in Rain , Thunderstorm Rain
8:55 AM 46.4 °F 40.7 °F 42.8 °F 87% 30.05 in 10.0 mi NE 12.7 mph - N/A   Light Drizzle
9:55 AM 44.6 °F 38.4 °F 41.0 °F 87% 30.08 in 10.0 mi North 12.7 mph 17.3 mph N/A   Overcast
10:55 AM 44.6 °F 39.2 °F 41.0 °F 87% 30.08 in 10.0 mi NE 10.4 mph - N/A   Overcast
11:55 AM 48.2 °F - 44.6 °F 87% 30.08 in 10.0 mi NNE 10.4 mph 17.3 mph N/A   Overcast
12:55 PM 50.0 °F - 44.6 °F 82% 30.06 in 10.0 mi ENE 11.5 mph 17.3 mph N/A   Overcast
1:55 PM 50.0 °F - 46.4 °F 87% 30.06 in 10.0 mi NE 9.2 mph - N/A   Overcast
2:55 PM 48.2 °F - 44.6 °F 87% 30.04 in 7.0 mi NE 10.4 mph - N/A   Overcast
11:35 PM 42.4 °F 35.7 °F 39.2 °F 88% 30.09 in 10.0 mi NNE 12.7 mph - 0.06 in Rain , Thunderstorm Light Thunderstorms and Rain
11:55 PM 42.4 °F 37.5 °F 39.2 °F 88% 30.10 in 10.0 mi NE 8.1 mph - 0.06 in Rain , Thunderstorm Light Thunderstorms and Rain